SCP
-0 -0 -0 -0 -0 -0 -0 0 0 0 0 0 0 0 0 0 0 0 0 0 -0 -0 -0 -0 0 0 0 0 0 0 0 0 0 0 0 0 -0 0 0 -0 -0 -0 -0 0 0 0 0
-0 -0 -0 -0 -0 -0 -0 -0 0 0 0 0 0 0 0 0 0 0 0 0 -0 -0 -0 -0 0 0 0 0 0 0 0 0 0 0 0 0 0 0 0 -0 -0 -0 0 -0 0 -0 0
-0 -0 -0 -0 -0 -0 -0 -0 -0 0 0 0 0 0 0 0 0 0 0 0 -0 -0 -0 0 0 0 0 0 0 0 0 0 0 0 0 0 0 0 -0 -0 -0 -0 0 -0 0 0 0
-0 -0 -0 -0 -0 -0 -0 -0 -0 0 0 0 0 0 0 0 0 0 0 0 -0 -0 0 0 0 0 0 0 0 0 0 0 0 0 0 -0 0 0 -0 -0 -0 -0 0 0 0 -0 0
-0 -0 -0 -0 -0 -0 -0 -0 -0 -0 0 0 0 0 0 0 0 0 0 0 -0 0 0 0 0 0 0 0 0 0 0 0 0 0 0 -0 -0 0 0 0 0 0 -0 -0 -0 0 0
-0 -0 -0 -0 -0 -0 -0 -0 -0 -0 0 0 0 0 0 0 0 0 0 0 0 0 0 0 0 0 0 0 0 0 0 0 0 0 0 0 -0 0 -0 -0 0 0 0 0 0 -0 0
-0 -0 -0 -0 -0 -0 -0 -0 -0 -0 -0 0 0 0 0 0 0 0 0 0 0 0 0 0 0 0 0 0 0 0 0 0 0 0 -0 0 -0 0 -0 -0 -0 0 -0 0 0 -0 -0
-0 -0 -0 -0 -0 -0 -0 -0 -0 -0 -0 0 0 0 0 0 0 0 0 0 0 0 0 0 0 0 0 0 0 0 0 0 0 -0 -0 -0 -0 -0 -0 0 0 0 -0 -0 -0 -0 0
-0 -0 -0 -0 -0 -0 -0 -0 -0 -0 -0 -0 0 0 0 0 0 0 0 0 0 0 0 0 0 0 0 0 0 -0 0 0 0 0 0 0 -0 -0 0 0 0 0 0 -0 0 0 0
-0 -0 -0 -0 -0 -0 -0 -0 -0 -0 -0 -0 0 0 0 0 0 0 0 0 0 0 0 0 0 0 0 0 0 0 0 0 0 -0 0 0 -0 -0 0 0 0 0 0 0 0 0 -0
-0 -0 -0 -0 -0 -0 -0 -0 -0 -0 -0 -0 0 0 0 0 0 0 0 0 0 0 0 0 0 0 0 0 0 0 0 0 -0 -0 -0 0 0 0 0 0 0 0 0 0 0 0 0
-0 -0 -0 -0 -0 -0 -0 -0 -0 -0 -0 -0 0 0 0 0 0 0 0 0 0 0 0 0 0 0 0 0 0 0 0 0 0 0 -0 -0 -0 0 -0 0 0 0 0 0 0 0 0
-0 -0 -0 -0 -0 -0 -0 -0 -0 -0 -0 -0 0 0 0 0 0 0 0 0 0 0 0 0 0 0 0 0 0 0 0 0 0 0 0 -0 -0 0 0 -0 0 0 0 0 0 0 0
-0 -0 -0 -0 -0 -0 -0 -0 -0 -0 -0 -0 0 0 0 0 0 0 0 0 0 0 0 0 0 0 0 0 0 0 0 0 0 -0 0 0 0 0 0 -0 0 0 0 0 0 0 0
-0 -0 -0 -0 -0 -0 -0 -0 -0 -0 -0 0 0 0 0 0 0 0 0 0 0 0 0 0 0 0 0 0 0 0 -0 -0 -0 -0 0 0 0 0 0 0 0 0 0 0 0 0 0
-0 -0 -0 -0 -0 -0 -0 -0 -0 -0 -0 0 0 0 0 0 0 0 0 0 0 0 0 0 0 0 0 0 0 0 0 -0 -0 0 0 0 0 0 0 0 0 0 0 0 0 0 0
-0 -0 -0 -0 -0 -0 -0 -0 -0 -0 -0 0 0 0 0 0 0 0 0 0 0 0 0 0 0 0 0 0 0 0 0 0 0 0 0 0 0 0 0 0 0 0 0 0 0 0 0
-0 -0 -0 -0 -0 -0 -0 -0 -0 -0 -0 0 0 0 0 0 0 0 0 0 0 0 0 0 0 0 0 0 0 0 0 0 0 0 0 0 0 0 0 0 0 0 0 0 0 0 0
-0 -0 -0 -0 -0 -0 -0 -0 -0 -0 0 0 0 0 0 0 0 0 0 0 0 0 0 0 0 0 0 0 0 0 0 0 0 0 0 0 0 0 0 0 0 0 0 0 0 0 0
-0 -0 -0 -0 -0 -0 -0 -0 -0 -0 0 0 0 0 0 0 0 0 0 0 0 0 0 0 0 0 0 0 0 0 0 0 0 0 0 0 0 0 0 0 0 0 0 0 0 0 0
-0 -0 -0 -0 -0 -0 -0 -0 -0 -0 0 0 0 0 0 0 0 0 0 0 0 0 0 0 0 0 0 0 0 0 0 0 0 0 0 0 0 0 0 0 0 0 0 0 0 0 0
-0 0 -0 -0 -0 -0 -0 -0 -0 -0 0 0 0 0 0 0 0 0 0 0 0 0 0 0 0 0 0 0 0 0 0 0 0 0 0 0 0 0 0 0 0 0 0 0 0 0 0
0 -0 -0 -0 -0 -0 -0 -0 -0 -0 0 0 0 0 0 0 0 0 0 0 0 0 0 0 0 0 0 0 0 0 0 0 0 0 0 0 0 0 0 0 0 0 0 0 0 0 0
0 0 -0 0 -0 -0 -0 -0 -0 -0 0 0 0 0 0 0 0 0 0 0 0 0 0 0 0 0 0 0 0 0 0 0 0 0 0 0 0 0 0 0 0 0 0 0 0 0 0
0 0 0 0 0 0 -0 -0 -0 -0 -0 0 0 0 0 0 0 0 0 0 0 0 0 0 0 0 0 0 0 0 0 0 0 0 0 0 0 0 0 0 0 0 0 0 0 0 0
0 0 0 0 0 0 -0 -0 -0 -0 -0 0 0 0 0 0 0 0 0 0 0 0 0 0 0 0 0 0 0 0 0 0 0 0 0 0 0 0 0 0 0 0 0 0 0 0 0
0 0 0 0 0 0 0 -0 -0 -0 -0 0 0 0 0 0 0 0 0 0 0 0 0 0 0 0 0 0 0 0 0 0 0 0 0 0 0 0 0 0 0 0 0 0 0 0 0
0 0 0 0 0 0 0 0 0 -0 0 0 0 0 0 0 0 0 0 0 0 0 0 0 0 0 0 0 0 0 0 0 0 0 0 0 0 0 0 0 0 0 0 0 0 0 0
0 0 0 0 0 0 0 0 0 0 0 0 0 0 0 0 0 0 0 0 0 0 0 0 0 0 0 0 0 0 0 0 0 0 0 0 0 0 0 0 0 0 0 0 0 0 0
Wind_Speed_500mb
32 31 30 30 30 31 32 33 32 30 26 21 18 18 17 16 15 13 13 12 12 13 15 15 14 11 7 5 5 2 10 8 7 1 7 19 22 9 7 8 6 5 13 6 6 10 9
32 32 31 31 32 33 35 36 37 34 28 20 17 17 16 15 15 13 12 12 12 13 13 14 13 11 8 6 6 9 9 7 3 3 8 16 14 16 4 6 5 12 16 27 8 14 12
32 33 33 33 33 34 37 39 39 37 30 18 14 15 15 15 14 13 12 12 12 12 12 13 12 12 14 15 7 9 9 4 4 2 7 10 17 12 8 4 12 10 10 12 9 6 8
33 33 33 33 34 35 37 39 41 39 33 21 12 11 13 14 13 13 12 11 10 10 11 12 11 10 13 10 14 12 11 5 5 4 6 6 18 9 6 11 6 8 4 8 7 3 3
35 35 34 34 34 35 37 39 41 40 35 24 13 8 9 12 13 12 11 10 9 10 11 11 9 8 10 8 20 19 13 5 5 7 6 7 11 8 5 6 4 12 4 8 14 7 2
37 37 36 36 35 36 37 38 40 40 37 28 16 7 7 11 13 13 13 11 9 9 11 8 8 5 13 5 15 24 16 9 5 12 7 4 6 3 4 11 9 13 8 9 9 7 2
39 38 38 37 36 36 37 38 39 39 37 30 18 6 7 12 15 17 17 14 9 4 19 12 6 5 6 11 15 19 17 12 9 11 3 7 4 3 9 1 6 11 8 13 8 9 6
41 40 39 38 37 37 37 37 38 37 35 30 19 6 8 15 18 19 20 7 7 5 6 26 25 25 24 17 5 18 22 8 6 7 2 3 5 5 6 2 4 4 5 10 17 5 4
43 42 41 40 39 38 38 38 38 37 33 29 19 5 8 17 19 20 19 11 6 7 3 6 14 15 9 13 10 22 24 10 8 8 4 4 1 9 1 4 10 6 6 8 10 11 4
44 44 43 42 41 39 39 39 39 36 32 27 19 3 10 18 16 19 14 8 12 9 2 7 7 6 13 12 5 26 22 10 5 6 9 10 3 5 9 11 2 7 7 14 14 8 9
45 44 44 44 44 42 40 40 39 36 31 26 17 1 14 23 14 19 10 6 7 12 7 9 7 7 14 5 10 13 23 12 10 9 9 5 5 2 10 9 9 4 4 2 5 6 6
46 45 45 46 47 44 42 41 39 36 30 25 12 3 17 21 24 15 4 10 6 5 6 9 7 10 11 2 4 6 6 9 6 6 2 13 4 8 7 3 9 5 5 4 3 1 1
45 45 46 47 49 46 43 42 39 35 29 24 6 6 18 23 22 9 10 12 4 2 1 11 8 11 10 10 8 6 16 15 8 6 7 5 10 5 7 5 5 8 4 3 3 3 5
44 45 45 48 50 50 45 44 40 34 28 19 1 6 19 25 25 10 17 3 2 2 2 5 8 16 13 12 6 5 12 15 5 5 1 4 9 4 8 9 6 4 2 3 6 8 8
42 44 46 48 51 52 47 45 41 34 26 11 3 8 16 29 19 11 7 3 1 3 4 2 8 9 7 8 4 7 11 12 17 25 11 6 3 4 14 1 5 9 4 4 8 2 6
41 43 46 47 51 54 48 45 43 35 23 4 7 12 19 30 17 11 3 5 5 7 5 4 8 5 16 14 15 13 14 5 7 24 27 4 4 1 1 4 24 3 16 4 0 6 14
41 42 45 48 50 54 46 45 44 35 19 4 14 11 17 29 16 5 4 7 9 12 12 7 6 8 8 9 7 8 7 3 2 4 21 11 7 6 4 7 1 6 6 8 3 4 9
38 41 44 47 50 53 45 46 44 33 18 4 7 5 28 22 4 2 5 6 5 9 1 5 1 7 7 6 6 5 8 3 13 11 14 12 5 5 1 7 2 4 3 4 6 4 2
36 40 42 45 48 50 44 45 44 32 18 5 7 10 24 10 6 5 5 6 7 5 6 7 3 6 6 7 7 2 3 4 14 7 13 17 5 8 6 5 5 8 5 4 7 3 10
34 37 41 43 46 48 43 43 42 32 18 5 6 6 5 6 5 4 2 4 5 3 1 3 4 5 6 6 10 7 4 6 9 6 6 4 5 5 12 2 4 8 11 9 9 7 6
32 33 38 40 43 46 42 41 40 35 14 4 4 3 7 8 9 7 2 4 5 2 3 8 6 8 5 6 4 5 1 1 5 9 5 4 3 3 2 2 5 6 12 15 16 12 15
30 30 33 37 39 42 40 40 38 36 12 8 4 4 6 5 4 10 5 6 7 5 6 3 8 6 4 6 1 8 5 1 3 7 5 6 2 1 3 3 8 13 14 16 16 11 17
27 27 29 33 35 38 37 37 39 34 26 11 9 7 5 2 4 7 7 1 1 5 14 12 15 13 18 9 6 10 9 9 8 7 4 3 9 8 14 5 5 16 21 19 8 5 8
27 23 26 29 30 32 33 31 34 33 32 31 19 3 1 4 2 3 2 3 4 2 7 7 9 6 3 3 3 5 10 11 9 14 6 4 6 1 9 4 17 7 9 12 7 3 6
27 19 23 26 26 27 28 26 27 28 23 25 30 6 4 5 1 3 5 5 7 12 10 11 10 7 8 5 3 2 2 2 8 15 4 5 8 5 6 13 9 6 4 1 3 5 4
29 15 20 25 24 22 23 23 22 23 21 15 25 14 5 3 3 2 4 4 4 5 5 5 9 8 6 6 3 5 5 1 5 6 8 10 8 8 6 8 9 6 5 10 6 11 8
25 16 20 24 23 17 19 19 20 19 20 15 15 18 3 3 5 4 3 4 6 5 4 1 4 3 7 4 4 5 5 1 5 5 3 3 4 10 9 9 3 3 7 3 9 6 6
22 21 20 24 21 15 15 16 18 18 18 15 10 16 1 3 5 7 7 5 5 3 3 4 5 2 4 4 4 5 5 4 4 1 1 1 3 4 3 6 10 6 4 5 12 8 8
21 21 22 22 20 13 12 13 13 16 17 12 12 17 7 4 5 10 10 10 11 9 4 3 2 3 4 6 3 5 5 5 2 5 2 5 3 3 7 4 2 2 6 10 11 18 25
Wind_Direction_500mb
16 14 14 12 8 6 3 357 351 340 325 301 278 265 259 257 255 251 247 241 237 234 231 228 228 239 266 268 228 45 94 98 79 41 62 27 25 20 33 353 4 315 338 289 254 195 199
11 10 9 8 5 3 2 359 355 349 335 309 280 262 253 250 248 245 240 236 231 229 229 224 224 231 254 257 180 113 99 92 128 186 62 33 5 360 78 352 356 325 309 296 268 197 214
5 4 4 5 3 0 0 359 357 355 346 326 291 260 248 243 240 235 232 228 226 222 222 221 219 228 247 226 169 150 150 76 78 172 105 17 1 3 347 347 338 310 319 324 274 222 220
1 359 359 359 359 359 358 357 359 359 354 339 307 265 244 235 229 223 221 219 219 216 213 217 218 231 251 243 219 197 216 337 92 81 90 5 345 5 25 318 10 26 48 341 359 25 321
360 358 357 357 356 356 355 356 359 0 0 355 331 280 238 223 215 208 205 202 204 206 201 206 211 212 258 232 218 203 233 304 11 99 85 346 339 37 25 5 52 23 346 5 329 359 62
1 358 357 356 355 354 353 354 358 0 2 1 352 306 231 208 198 190 185 177 182 190 186 188 215 227 244 165 195 213 230 214 181 138 106 67 31 34 54 26 6 317 345 323 293 320 244
2 360 357 356 356 354 352 354 357 359 3 3 357 331 213 191 185 180 170 151 148 191 202 193 202 214 140 30 178 191 187 189 144 102 98 36 261 61 332 61 303 291 289 305 266 279 281
3 1 359 357 356 355 353 352 355 357 1 3 358 347 191 182 178 171 166 169 168 136 268 236 247 250 258 291 163 177 172 168 121 127 142 231 225 161 281 6 266 241 285 284 291 293 230
4 3 1 359 357 356 355 353 353 356 358 0 357 352 177 174 171 170 169 161 158 293 258 240 230 248 229 188 188 176 171 146 108 129 120 223 312 256 207 331 305 198 237 261 281 314 222
3 3 2 0 358 357 356 354 353 354 355 355 354 356 170 164 167 168 176 191 284 223 181 163 213 199 180 153 141 163 175 162 93 189 176 248 259 235 304 309 204 302 218 265 285 281 320
1 1 3 1 360 357 356 355 353 351 351 349 349 329 174 161 156 154 167 272 143 157 132 149 152 182 172 174 133 160 182 182 167 158 200 159 194 285 299 273 200 282 334 337 311 283 276
359 359 1 1 360 357 355 354 353 350 349 345 339 210 179 164 151 153 206 169 145 234 114 157 132 159 151 89 70 114 129 142 118 179 241 269 226 261 241 357 214 115 205 78 103 326 196
357 358 358 360 359 356 353 353 353 349 347 343 326 191 175 164 157 132 142 143 237 240 299 156 162 168 165 162 177 147 171 184 200 182 235 293 245 232 208 225 177 198 248 332 176 32 16
355 355 356 357 358 356 353 353 353 349 347 346 311 168 171 157 153 148 161 215 217 85 214 97 123 132 181 157 165 126 146 190 177 163 170 260 152 229 163 237 160 112 335 48 354 336 342
353 353 354 355 356 355 353 352 353 351 348 349 153 134 161 165 158 153 168 226 281 188 329 29 127 135 149 167 165 169 197 206 201 194 217 201 140 58 62 121 281 148 134 29 118 118 259
352 352 352 353 355 355 353 352 353 351 349 14 151 126 145 160 165 154 109 263 259 232 291 211 190 195 173 161 178 198 184 160 215 200 217 196 228 61 30 197 55 355 133 186 50 276 293
352 351 351 352 355 355 354 353 354 353 355 81 139 120 144 147 146 153 202 249 272 264 240 218 189 135 122 145 197 183 168 123 302 124 195 173 235 158 239 21 123 155 151 71 109 322 296
350 350 350 352 355 356 356 355 356 357 6 105 145 108 158 154 131 26 200 216 300 282 292 264 228 87 110 114 121 149 176 277 342 174 178 178 177 213 103 16 2 324 104 215 268 238 143
345 349 350 352 355 357 357 357 358 0 8 121 105 94 166 160 178 199 265 268 257 287 353 356 75 31 57 105 114 113 137 60 18 169 173 179 189 148 146 161 220 233 136 113 108 142 203
339 346 349 351 355 358 358 359 359 1 5 132 133 123 151 204 138 146 16 299 285 348 104 39 85 125 119 85 39 128 128 41 28 85 97 139 134 226 269 356 106 180 177 186 242 240 260
333 341 347 350 354 358 359 1 3 2 8 123 109 111 156 176 205 192 196 307 294 210 48 35 96 58 98 115 101 96 85 3 85 16 41 340 163 213 201 184 204 240 212 197 222 259 253
326 335 343 349 354 358 360 2 9 8 10 59 98 133 126 97 127 161 165 210 227 146 337 41 111 92 80 119 53 163 154 61 16 22 50 1 137 181 264 214 241 253 251 242 242 235 253
316 328 336 345 352 358 1 3 9 19 28 52 59 86 117 20 128 174 171 305 210 162 47 68 112 98 89 73 72 58 70 73 60 20 18 327 159 182 252 360 293 261 256 249 234 218 273
312 319 328 340 348 356 2 4 9 15 27 34 26 57 353 111 174 135 163 128 66 6 130 76 78 104 126 95 65 72 58 64 94 35 237 161 124 202 271 200 252 51 351 239 236 151 196
309 307 322 332 342 352 359 3 8 13 16 20 21 40 47 109 107 114 91 95 101 78 76 86 55 86 129 102 87 0 77 117 76 36 62 244 160 165 238 227 331 209 162 171 239 175 175
299 295 314 325 332 345 355 1 3 8 11 12 17 30 57 137 86 170 76 45 116 97 111 87 55 91 119 74 96 207 233 70 172 144 72 92 83 218 161 238 252 77 112 0 157 258 171
286 291 301 314 320 331 349 356 359 1 5 6 12 17 49 91 50 111 100 98 105 100 109 19 357 87 73 113 144 190 184 288 208 186 155 106 72 221 208 248 269 51 352 184 233 30 154
270 277 288 307 311 311 334 350 357 359 0 3 354 4 55 87 99 91 84 103 107 86 170 139 161 111 91 125 187 157 203 120 185 113 233 264 229 185 167 246 255 31 118 305 349 296 259
266 271 277 296 305 287 314 341 352 1 1 6 360 355 168 139 122 115 111 95 83 73 104 129 85 109 141 112 171 142 161 176 178 195 145 219 303 347 246 359 17 334 56 343 309 286 286
Wind_Speed_850mb
32 31 30 30 30 31 32 33 32 30 26 21 18 18 17 16 15 13 13 12 12 13 15 15 14 11 7 5 5 2 10 8 7 1 7 19 22 9 7 8 6 5 13 6 6 10 9
32 32 31 31 32 33 35 36 37 34 28 20 17 17 16 15 15 13 12 12 12 13 13 14 13 11 8 6 6 9 9 7 3 3 8 16 14 16 4 6 5 12 16 27 8 14 12
32 33 33 33 33 34 37 39 39 37 30 18 14 15 15 15 14 13 12 12 12 12 12 13 12 12 14 15 7 9 9 4 4 2 7 10 17 12 8 4 12 10 10 12 9 6 8
33 33 33 33 34 35 37 39 41 39 33 21 12 11 13 14 13 13 12 11 10 10 11 12 11 10 13 10 14 12 11 5 5 4 6 6 18 9 6 11 6 8 4 8 7 3 3
35 35 34 34 34 35 37 39 41 40 35 24 13 8 9 12 13 12 11 10 9 10 11 11 9 8 10 8 20 19 13 5 5 7 6 7 11 8 5 6 4 12 4 8 14 7 2
37 37 36 36 35 36 37 38 40 40 37 28 16 7 7 11 13 13 13 11 9 9 11 8 8 5 13 5 15 24 16 9 5 12 7 4 6 3 4 11 9 13 8 9 9 7 2
39 38 38 37 36 36 37 38 39 39 37 30 18 6 7 12 15 17 17 14 9 4 19 12 6 5 6 11 15 19 17 12 9 11 3 7 4 3 9 1 6 11 8 13 8 9 6
41 40 39 38 37 37 37 37 38 37 35 30 19 6 8 15 18 19 20 7 7 5 6 26 25 25 24 17 5 18 22 8 6 7 2 3 5 5 6 2 4 4 5 10 17 5 4
43 42 41 40 39 38 38 38 38 37 33 29 19 5 8 17 19 20 19 11 6 7 3 6 14 15 9 13 10 22 24 10 8 8 4 4 1 9 1 4 10 6 6 8 10 11 4
44 44 43 42 41 39 39 39 39 36 32 27 19 3 10 18 16 19 14 8 12 9 2 7 7 6 13 12 5 26 22 10 5 6 9 10 3 5 9 11 2 7 7 14 14 8 9
45 44 44 44 44 42 40 40 39 36 31 26 17 1 14 23 14 19 10 6 7 12 7 9 7 7 14 5 10 13 23 12 10 9 9 5 5 2 10 9 9 4 4 2 5 6 6
46 45 45 46 47 44 42 41 39 36 30 25 12 3 17 21 24 15 4 10 6 5 6 9 7 10 11 2 4 6 6 9 6 6 2 13 4 8 7 3 9 5 5 4 3 1 1
45 45 46 47 49 46 43 42 39 35 29 24 6 6 18 23 22 9 10 12 4 2 1 11 8 11 10 10 8 6 16 15 8 6 7 5 10 5 7 5 5 8 4 3 3 3 5
44 45 45 48 50 50 45 44 40 34 28 19 1 6 19 25 25 10 17 3 2 2 2 5 8 16 13 12 6 5 12 15 5 5 1 4 9 4 8 9 6 4 2 3 6 8 8
42 44 46 48 51 52 47 45 41 34 26 11 3 8 16 29 19 11 7 3 1 3 4 2 8 9 7 8 4 7 11 12 17 25 11 6 3 4 14 1 5 9 4 4 8 2 6
41 43 46 47 51 54 48 45 43 35 23 4 7 12 19 30 17 11 3 5 5 7 5 4 8 5 16 14 15 13 14 5 7 24 27 4 4 1 1 4 24 3 16 4 0 6 14
41 42 45 48 50 54 46 45 44 35 19 4 14 11 17 29 16 5 4 7 9 12 12 7 6 8 8 9 7 8 7 3 2 4 21 11 7 6 4 7 1 6 6 8 3 4 9
38 41 44 47 50 53 45 46 44 33 18 4 7 5 28 22 4 2 5 6 5 9 1 5 1 7 7 6 6 5 8 3 13 11 14 12 5 5 1 7 2 4 3 4 6 4 2
36 40 42 45 48 50 44 45 44 32 18 5 7 10 24 10 6 5 5 6 7 5 6 7 3 6 6 7 7 2 3 4 14 7 13 17 5 8 6 5 5 8 5 4 7 3 10
34 37 41 43 46 48 43 43 42 32 18 5 6 6 5 6 5 4 2 4 5 3 1 3 4 5 6 6 10 7 4 6 9 6 6 4 5 5 12 2 4 8 11 9 9 7 6
32 33 38 40 43 46 42 41 40 35 14 4 4 3 7 8 9 7 2 4 5 2 3 8 6 8 5 6 4 5 1 1 5 9 5 4 3 3 2 2 5 6 12 15 16 12 15
30 30 33 37 39 42 40 40 38 36 12 8 4 4 6 5 4 10 5 6 7 5 6 3 8 6 4 6 1 8 5 1 3 7 5 6 2 1 3 3 8 13 14 16 16 11 17
27 27 29 33 35 38 37 37 39 34 26 11 9 7 5 2 4 7 7 1 1 5 14 12 15 13 18 9 6 10 9 9 8 7 4 3 9 8 14 5 5 16 21 19 8 5 8
27 23 26 29 30 32 33 31 34 33 32 31 19 3 1 4 2 3 2 3 4 2 7 7 9 6 3 3 3 5 10 11 9 14 6 4 6 1 9 4 17 7 9 12 7 3 6
27 19 23 26 26 27 28 26 27 28 23 25 30 6 4 5 1 3 5 5 7 12 10 11 10 7 8 5 3 2 2 2 8 15 4 5 8 5 6 13 9 6 4 1 3 5 4
29 15 20 25 24 22 23 23 22 23 21 15 25 14 5 3 3 2 4 4 4 5 5 5 9 8 6 6 3 5 5 1 5 6 8 10 8 8 6 8 9 6 5 10 6 11 8
25 16 20 24 23 17 19 19 20 19 20 15 15 18 3 3 5 4 3 4 6 5 4 1 4 3 7 4 4 5 5 1 5 5 3 3 4 10 9 9 3 3 7 3 9 6 6
22 21 20 24 21 15 15 16 18 18 18 15 10 16 1 3 5 7 7 5 5 3 3 4 5 2 4 4 4 5 5 4 4 1 1 1 3 4 3 6 10 6 4 5 12 8 8
21 21 22 22 20 13 12 13 13 16 17 12 12 17 7 4 5 10 10 10 11 9 4 3 2 3 4 6 3 5 5 5 2 5 2 5 3 3 7 4 2 2 6 10 11 18 25
Wind_Direction_850mb
16 14 14 12 8 6 3 357 351 340 325 301 278 265 259 257 255 251 247 241 237 234 231 228 228 239 266 268 228 45 94 98 79 41 62 27 25 20 33 353 4 315 338 289 254 195 199
11 10 9 8 5 3 2 359 355 349 335 309 280 262 253 250 248 245 240 236 231 229 229 224 224 231 254 257 180 113 99 92 128 186 62 33 5 360 78 352 356 325 309 296 268 197 214
5 4 4 5 3 0 0 359 357 355 346 326 291 260 248 243 240 235 232 228 226 222 222 221 219 228 247 226 169 150 150 76 78 172 105 17 1 3 347 347 338 310 319 324 274 222 220
1 359 359 359 359 359 358 357 359 359 354 339 307 265 244 235 229 223 221 219 219 216 213 217 218 231 251 243 219 197 216 337 92 81 90 5 345 5 25 318 10 26 48 341 359 25 321
360 358 357 357 356 356 355 356 359 0 0 355 331 280 238 223 215 208 205 202 204 206 201 206 211 212 258 232 218 203 233 304 11 99 85 346 339 37 25 5 52 23 346 5 329 359 62
1 358 357 356 355 354 353 354 358 0 2 1 352 306 231 208 198 190 185 177 182 190 186 188 215 227 244 165 195 213 230 214 181 138 106 67 31 34 54 26 6 317 345 323 293 320 244
2 360 357 356 356 354 352 354 357 359 3 3 357 331 213 191 185 180 170 151 148 191 202 193 202 214 140 30 178 191 187 189 144 102 98 36 261 61 332 61 303 291 289 305 266 279 281
3 1 359 357 356 355 353 352 355 357 1 3 358 347 191 182 178 171 166 169 168 136 268 236 247 250 258 291 163 177 172 168 121 127 142 231 225 161 281 6 266 241 285 284 291 293 230
4 3 1 359 357 356 355 353 353 356 358 0 357 352 177 174 171 170 169 161 158 293 258 240 230 248 229 188 188 176 171 146 108 129 120 223 312 256 207 331 305 198 237 261 281 314 222
3 3 2 0 358 357 356 354 353 354 355 355 354 356 170 164 167 168 176 191 284 223 181 163 213 199 180 153 141 163 175 162 93 189 176 248 259 235 304 309 204 302 218 265 285 281 320
1 1 3 1 360 357 356 355 353 351 351 349 349 329 174 161 156 154 167 272 143 157 132 149 152 182 172 174 133 160 182 182 167 158 200 159 194 285 299 273 200 282 334 337 311 283 276
359 359 1 1 360 357 355 354 353 350 349 345 339 210 179 164 151 153 206 169 145 234 114 157 132 159 151 89 70 114 129 142 118 179 241 269 226 261 241 357 214 115 205 78 103 326 196
357 358 358 360 359 356 353 353 353 349 347 343 326 191 175 164 157 132 142 143 237 240 299 156 162 168 165 162 177 147 171 184 200 182 235 293 245 232 208 225 177 198 248 332 176 32 16
355 355 356 357 358 356 353 353 353 349 347 346 311 168 171 157 153 148 161 215 217 85 214 97 123 132 181 157 165 126 146 190 177 163 170 260 152 229 163 237 160 112 335 48 354 336 342
353 353 354 355 356 355 353 352 353 351 348 349 153 134 161 165 158 153 168 226 281 188 329 29 127 135 149 167 165 169 197 206 201 194 217 201 140 58 62 121 281 148 134 29 118 118 259
352 352 352 353 355 355 353 352 353 351 349 14 151 126 145 160 165 154 109 263 259 232 291 211 190 195 173 161 178 198 184 160 215 200 217 196 228 61 30 197 55 355 133 186 50 276 293
352 351 351 352 355 355 354 353 354 353 355 81 139 120 144 147 146 153 202 249 272 264 240 218 189 135 122 145 197 183 168 123 302 124 195 173 235 158 239 21 123 155 151 71 109 322 296
350 350 350 352 355 356 356 355 356 357 6 105 145 108 158 154 131 26 200 216 300 282 292 264 228 87 110 114 121 149 176 277 342 174 178 178 177 213 103 16 2 324 104 215 268 238 143
345 349 350 352 355 357 357 357 358 0 8 121 105 94 166 160 178 199 265 268 257 287 353 356 75 31 57 105 114 113 137 60 18 169 173 179 189 148 146 161 220 233 136 113 108 142 203
339 346 349 351 355 358 358 359 359 1 5 132 133 123 151 204 138 146 16 299 285 348 104 39 85 125 119 85 39 128 128 41 28 85 97 139 134 226 269 356 106 180 177 186 242 240 260
333 341 347 350 354 358 359 1 3 2 8 123 109 111 156 176 205 192 196 307 294 210 48 35 96 58 98 115 101 96 85 3 85 16 41 340 163 213 201 184 204 240 212 197 222 259 253
326 335 343 349 354 358 360 2 9 8 10 59 98 133 126 97 127 161 165 210 227 146 337 41 111 92 80 119 53 163 154 61 16 22 50 1 137 181 264 214 241 253 251 242 242 235 253
316 328 336 345 352 358 1 3 9 19 28 52 59 86 117 20 128 174 171 305 210 162 47 68 112 98 89 73 72 58 70 73 60 20 18 327 159 182 252 360 293 261 256 249 234 218 273
312 319 328 340 348 356 2 4 9 15 27 34 26 57 353 111 174 135 163 128 66 6 130 76 78 104 126 95 65 72 58 64 94 35 237 161 124 202 271 200 252 51 351 239 236 151 196
309 307 322 332 342 352 359 3 8 13 16 20 21 40 47 109 107 114 91 95 101 78 76 86 55 86 129 102 87 0 77 117 76 36 62 244 160 165 238 227 331 209 162 171 239 175 175
299 295 314 325 332 345 355 1 3 8 11 12 17 30 57 137 86 170 76 45 116 97 111 87 55 91 119 74 96 207 233 70 172 144 72 92 83 218 161 238 252 77 112 0 157 258 171
286 291 301 314 320 331 349 356 359 1 5 6 12 17 49 91 50 111 100 98 105 100 109 19 357 87 73 113 144 190 184 288 208 186 155 106 72 221 208 248 269 51 352 184 233 30 154
270 277 288 307 311 311 334 350 357 359 0 3 354 4 55 87 99 91 84 103 107 86 170 139 161 111 91 125 187 157 203 120 185 113 233 264 229 185 167 246 255 31 118 305 349 296 259
266 271 277 296 305 287 314 341 352 1 1 6 360 355 168 139 122 115 111 95 83 73 104 129 85 109 141 112 171 142 161 176 178 195 145 219 303 347 246 359 17 334 56 343 309 286 286